Regional Weather Roundup
Issued by NWS Austin/San Antonio, TX

Home | Current Version | Previous Version | Text Only | Print | Product List | Glossary On
Versions: 1 2 3 4 5 6 7 8 9 10 11 12 13 14 15 16 17 18 19 20 21 22 23 24 25 26 27 28 29 30 31 32 33 34 35 36 37 38 39 40 41 42 43 44 45 46 47 48 49 50
483
ASUS44 KEWX 262202
RWREWX
SOUTH TEXAS REGIONAL WEATHER ROUNDUP
NATIONAL WEATHER SERVICE AUSTIN/SAN ANTONIO TX
500 PM CDT FRI MAY 26 2017

NOTE: "FAIR" INDICATED FEW OR NO CLOUDS BELOW 12,000 FEET WITH NO
SIGNIFICANT WEATHER AND/OR OBSTRUCTIONS TO VISIBILITY.

* - THESE STATIONS ARE NOT NWS OR FAA STATIONS...AND ARE NOT SUBJECT
    TO NWS AND FAA QUALITY CONTROL.

TXZ171-172-183>190-262300-
TEXAS HILL COUNTRY AND EDWARDS PLATEAU

CITY           SKY/WX    TMP DP  RH WIND       PRES   REMARKS
JUNCTION       SUNNY     97  63  32 S5        29.81F HX  98
*LLANO         SUNNY     93  73  52 S8        29.84F HX 102
BURNET         MOSUNNY   86  72  62 SE12G20   29.86F HX  92
*HORSESHOE BAY NOT AVBL
*KERRVILLE     SUNNY     92  75  59 S7        29.86F HX 103
*FREDERICKSBRG SUNNY     87  68  53 S8        29.87F HX  90
*ROCKSPRINGS   SUNNY     90  70  51 S8        29.90F HX  95
*BOERNE STAGE  PTSUNNY   84  70  61 S9        29.87F
*CASTROVILLE   MOSUNNY   92  70  48 SE7       29.83F HX  97
HONDO          MOSUNNY   91  74  57 S8        29.83F HX 100
*UVALDE        SUNNY     90  73  56 CALM      29.83S HX  97
DEL RIO        CLOUDY    91  71  51 E6        29.78F HX  97
LAUGHLIN AFB   PTSUNNY   91  74  55 SE8       29.80F HX 100
CARRIZO SPRGS  MOSUNNY   95  72  46 S3        29.77F HX 103
*EAGLE PASS    NOT AVBL
$$

TXZ173-191>194-202-209-217>225-228-262300-
CENTRAL AND SOUTH CENTRAL TEXAS

CITY           SKY/WX    TMP DP  RH WIND       PRES   REMARKS
GEORGETOWN     NOT AVBL
AUSTIN/BERGSTM PTSUNNY   91  73  55 S13       29.81F HX  99
AUSTIN/MABRY   PTSUNNY   90  72  55 VRB6      29.83F HX  97
*AUSTIN/EXEC   FAIR      90  73  58 S9        29.82F HX  98
*LAGO VISTA    CLOUDY    86  72  62 SW7       29.86F HX  91
SAN MARCOS     MOSUNNY   90  73  58 S12G20    29.83F HX  98
NEW BRAUNFELS  MOSUNNY   94  73  50 S10       29.82F HX 103
RANDOLPH AFB   PTSUNNY   91  73  53 S8        29.82F HX  99
PT SAN ANTONIO MOSUNNY   91  72  54 S7        29.81F HX  98
SAN ANTONIO    PTSUNNY   89  70  53 S8        29.83F HX  94
STINSON FIELD  PTSUNNY   92  72  51 VRB6      29.80F HX  99
*LA GRANGE     CLOUDY    92  76  59 S10       29.82S HX 104
*GIDDINGS      PTSUNNY   89  72  56 S9        29.84S HX  96
*GONZALES      PTSUNNY   92  77  60 S9        29.82S HX 105
$$

TXZ163>164-176>182-195>201-210>213-226-227-235-262300-
SOUTHEAST TEXAS

CITY           SKY/WX    TMP DP  RH WIND       PRES   REMARKS
COLLEGE STN    MOSUNNY   89  75  63 S17       29.83S HX  99
*BRYAN         PTSUNNY   89  74  60 S15G25    29.84S HX  98
*CALDWELL      NOT AVBL
*CROCKETT      MOSUNNY   90  73  58 S13       29.87S HX  98
*BRENHAM       PTSUNNY   90  74  59 S13       29.84F HX  99
HUNTSVILLE     PTSUNNY   89  71  55 S12       29.85S HX  95
CONROE         PTSUNNY   88  72  58 S16       29.85F HX  94
HOUSTON BUSH   PTSUNNY   88  73  61 S14G21    29.86F HX  95
HOUSTON HOBBY  CLOUDY    84  75  74 S13       29.87F HX  92
*HOUSTON SW AP CLOUDY    83  74  74 S5        29.88S HX  90
PEARLAND       CLOUDY    86  75  69 SE13      29.89F HX  95
HOUSTON HOOKS  PTSUNNY   88  74  63 S13G18    29.86S HX  96
ELLINGTON FLD  PTSUNNY   86  73  66 S14       29.90F HX  93
SUGAR LAND     CLOUDY    86  76  71 SE14      29.86F HX  96
*HOUSTON EXEC  CLOUDY    86  75  70 S17       29.87S HAZE    HX  95
*CLEVELAND MUN CLOUDY    86  76  71 S14G21    29.88S HX  95
*WHARTON       PTSUNNY   85  73  67 SE16      29.86F HX  91
*COLUMBUS      CLOUDY    86  74  67 S10G18    29.86S HX  93
*EAGLE LAKE    CLOUDY    86  77  75 S13G20    29.85F HX  97
$$

TXZ214>216-236>238-262300-
THE UPPER TEXAS COAST

CITY           SKY/WX    TMP DP  RH WIND       PRES   REMARKS
*ORANGE        CLOUDY    82  74  78 S13       29.94S
PORT ARTHUR    CLOUDY    82  73  74 S15       29.91S
GALVESTON      PTSUNNY   85  78  80 SE16      29.91F HX  96
ANGLETON       CLOUDY    86  76  71 S15       29.88F HX  96
*BAY CITY      CLOUDY    85  76  74 S13G18    29.87F HX  93
PALACIOS       PTSUNNY   84  76  76 SE22      29.85F HX  93
$$

TXZ229>234-239>247-262300-
TEXAS COASTAL BEND AND RIO GRANDE PLAINS

CITY           SKY/WX    TMP DP  RH WIND       PRES   REMARKS
VICTORIA       CLOUDY    86  75  69 S16       29.84F HX  95
*BEEVILLE      PTSUNNY   90  79  69 SE14G21   29.81F HX 106
ROCKPORT       MOSUNNY   87  76  69 SE15G23   29.82F HX  97
*PORT ARANSAS  SUNNY     84  76  79 SE16G24   29.81F HX  93
*PORT LAVACA   CLOUDY    83  78  83 S12G21    29.85F HX  94
*INGLESIDE     MOSUNNY   87  78  73 SE22      29.81F HX 100
CORPUS CHRISTI MOSUNNY   88  79  74 SE21G30   29.79F HX 103
CORPUS NAS     MOSUNNY   88  79  74 SE20G32   29.80F HX 103
*ROBSTOWN      SUNNY     91  78  64 SE16G23   29.79F HX 106
ALICE          SUNNY     94  77  57 E20G29    29.77S HX 108
KINGSVILLE NAS MOSUNNY   94  80  64 SE23G30   29.77F HX 113
COTULLA        MOSUNNY   99  68  36 SE10      29.76F HX 104
*FAITH RANCH   SUNNY     95  72  46 SE8       29.78F HX 103
LAREDO         MOSUNNY   97  75  49 VRB3      29.77F HX 109
$$

TXZ248>255-262300-
DEEP SOUTH TEXAS

CITY           SKY/WX    TMP DP  RH WIND       PRES   REMARKS
BROWNSVILLE    PTSUNNY   91  78  65 SE22G28   29.81S HX 106
PORT ISABEL    PTSUNNY   91  77  63 SE20G29   29.79F HX 104
*SOUTH PADRE   NOT AVBL
HARLINGEN      MOSUNNY   96  77  54 SE21G26   29.77F HX 111
*HEBBRONVILLE  SUNNY     99  68  35 S15       29.78F HX 104
MCALLEN        SUNNY     99  78  51 SE20      29.75F HX 116
*WESLACO       SUNNY     96  76  52 S17G25    29.76F HX 108
FALFURRIAS     SUNNY     99  71  39 SE17G25   29.75F HX 107
EDINBURG       SUNNY     99  72  41 S16G26    29.75F HX 108
*ZAPATA        SUNNY     99  71  40 CALM      29.74F HX 106
$$

TXZ213>215-236>238-242>244-246-247-251-254-255-262300-
CMAN STATIONS

STATION/POSITION TIME  TEMP    WIND        PRES    WAVE
                       AIR SEA DIR/SP/G            HT/PER
                 (UTC) (F)     (DEG/KT/KT) (MB)    (FT/S)
SABINE PASS      2130   81 82  160/ 12/ 17 1014.9
SEA RIM ST PARK  2100   81     160/ 12/ 14 1013.9
NORTH JETTY/GLS  2130      80  150/ 15/ 17 1012.5
EAGLE POINT      2130   80 79  170/ 15/ 18 1012.5
MORGANS POINT    2130   81 78  150/  9/ 15 1012.2
MISSION/ARANSAS  2100   82                 1011.0
PORT O`CONNOR    2130   80     130/ 18/ 22 1010.3
PORT ARANSAS     2100   80 81  130/ 16/ 17 1010.2
MALAQUITE BEACH  2130   81 82  120/ 21/ 24 1009.9
BAFFIN BAY       2130   83 86              1009.1
PORT ISABEL      2130   84 81  150/ 13/ 18 1009.6
$$




USA.gov is the U.S. government's official web portal to all federal, state and local government web resources and services.